TimeMST,TemperatureF,Dew PointF,Humidity,Sea Level PressureIn,VisibilityMPH,Wind Direction,Wind SpeedMPH,Gust SpeedMPH,PrecipitationIn,Events,Conditions,WindDirDegrees,DateUTC
12:54 AM,3.0,-0.9,84,30.38,10.0,Calm,Calm,-,N/A,,Clear,0,2014-01-28 07:54:00
1:54 AM,1.9,-2.9,80,30.40,10.0,WSW,9.2,-,N/A,,Clear,250,2014-01-28 08:54:00
2:54 AM,3.0,-0.9,84,30.41,10.0,WSW,11.5,-,N/A,,Clear,250,2014-01-28 09:54:00
3:54 AM,3.0,-2.9,76,30.40,10.0,West,10.4,-,N/A,,Clear,260,2014-01-28 10:54:00
4:54 AM,3.9,-2.0,76,30.41,10.0,West,8.1,-,N/A,,Clear,280,2014-01-28 11:54:00
5:54 AM,1.9,-4.0,76,30.43,10.0,NW,3.5,-,N/A,,Clear,320,2014-01-28 12:54:00
6:54 AM,3.9,-2.9,73,30.44,10.0,Variable,3.5,-,N/A,,Clear,0,2014-01-28 13:54:00
7:54 AM,7.0,-4.0,61,30.46,10.0,NNW,3.5,-,N/A,,Clear,330,2014-01-28 14:54:00
8:54 AM,10.0,1.0,67,30.45,10.0,West,8.1,-,N/A,,Clear,270,2014-01-28 15:54:00
9:54 AM,14.0,-0.0,54,30.43,10.0,WSW,9.2,-,N/A,,Clear,240,2014-01-28 16:54:00
10:54 AM,18.0,1.9,50,30.41,10.0,WSW,12.7,-,N/A,,Clear,250,2014-01-28 17:54:00
11:54 AM,23.0,3.0,42,30.38,10.0,West,15.0,25.3,N/A,,Clear,280,2014-01-28 18:54:00
12:54 PM,28.0,1.9,33,30.33,10.0,West,19.6,-,N/A,,Clear,260,2014-01-28 19:54:00
1:54 PM,30.0,-0.0,28,30.30,10.0,West,24.2,-,N/A,,Clear,270,2014-01-28 20:54:00
2:54 PM,28.9,-0.0,29,30.29,10.0,West,25.3,33.4,N/A,,Clear,270,2014-01-28 21:54:00
3:54 PM,30.0,-0.0,28,30.28,10.0,West,19.6,29.9,N/A,,Clear,260,2014-01-28 22:54:00
4:54 PM,28.0,3.0,34,30.29,10.0,West,26.5,36.8,N/A,,Clear,260,2014-01-28 23:54:00
5:54 PM,26.1,3.9,39,30.31,10.0,West,23.0,32.2,N/A,,Clear,270,2014-01-29 00:54:00
6:54 PM,26.1,6.1,43,30.31,10.0,SW,17.3,-,N/A,,Clear,230,2014-01-29 01:54:00
7:54 PM,26.1,6.1,43,30.28,10.0,WSW,19.6,-,N/A,,Clear,240,2014-01-29 02:54:00
8:54 PM,26.1,6.1,43,30.27,10.0,WSW,24.2,-,N/A,,Clear,250,2014-01-29 03:54:00
9:54 PM,26.1,5.0,41,30.26,10.0,West,26.5,33.4,N/A,,Clear,260,2014-01-29 04:54:00
10:54 PM,27.0,5.0,39,30.24,10.0,WSW,20.7,-,N/A,,Clear,250,2014-01-29 05:54:00
11:54 PM,28.0,5.0,38,30.19,10.0,West,32.2,39.1,N/A,,Overcast,260,2014-01-29 06:54:00